Regional Weather Roundup
Issued by NWS

Home | Current Version | Previous Version | Graphics & Text | Print | Product List | Glossary On
Versions: 1 2 3 4 5 6 7 8 9 10 11 12 13 14 15 16 17 18 19 20 21 22 23 24 25 26 27 28 29 30 31 32 33 34 35 36 37 38 39 40 41 42 43 44 45 46 47 48 49 50
000
ASUS43 KIND 260409
RWRIN

WEATHER ROUNDUP FOR INDIANA
NATIONAL WEATHER SERVICE INDIANAPOLIS IN
1200 AM EDT MON JUN 26 2017

NOTE: "FAIR" INDICATES FEW OR NO CLOUDS BELOW 12,000 FEET WITH NO
SIGNIFICANT WEATHER AND/OR OBSTRUCTIONS TO VISIBILITY.

* - STATION DOES NOT REPORT WEATHER SUCH AS PRECIPITATION OR FOG.

+ - STATION NOT QUALITY CONTROLLED BY THE NATIONAL WEATHER SERVICE.
    USE DATA WITH CAUTION...ESPECIALLY DEWPOINT AND RELATIVE
    HUMIDITY OBSERVATIONS.

INZ001>003-010>013-019-020-260500-
NORTHWEST INDIANA

CITY           SKY/WX    TMP DP  RH WIND       PRES   REMARKS
GARY /AIRPORT/ CLEAR     62  47  57 W9        30.11F
KNOX *+        CLEAR     59  37  44 W9        30.10S
LA PORTE +     CLEAR     60  49  65 W7        30.11S
MICHIGAN CITY+ CLOUDY    63  48  59 NW12G21   30.10S
MONTICELLO +   CLEAR     59  49  70 W5        30.12S
VALPARAISO     CLEAR     60  49  66 W8        30.11S

$$

LMZ046-743>745-260500-
SOUTHERN LAKE MICHIGAN

STATION/POSITION TIME  TEMP    WIND        PRES    WAVE
                       AIR SEA DIR/SP/G            HT
                 (UTC) (F)     (DEG/KT/KT) (MB)    (FT)
BURNS HARBOR     0340   65     290/ 17/ 21 1019.3S
MICHIGAN CITY    0340   64     280/ 22/ 25   N/A
5NW MICH CITY    0400   64 66  290/ 16/ 21   N/A     5

$$

INZ004-005-014>016-021>024-260500-
NORTH CENTRAL INDIANA

CITY           SKY/WX    TMP DP  RH WIND       PRES   REMARKS
GOSHEN         CLOUDY    58  52  80 W5        30.08S
LOGANSPORT +   CLEAR     59  48  67 W7        30.13S
PERU/GRISSOM   CLEAR     59  50  72 NW10      30.10S
ROCHESTER +    CLEAR     63  46  55 W7        30.10F
SOUTH BEND     CLEAR     56  55  97 W5        30.09S
WARSAW +       CLEAR     59  46  63 W7        30.09S

$$

INZ006>009-017-018-025>027-260500-
NORTHEAST INDIANA

CITY           SKY/WX    TMP DP  RH WIND       PRES   REMARKS
AUBURN +       PTCLDY    59  50  72 CALM      30.08F
FORT WAYNE     PTCLDY    61  49  64 W8        30.09F
HUNTINGTON +   CLEAR     58  47  67 W5        30.10S
KENDALLVILLE + RAIN      60  52  74 W9        30.08S

$$

INZ028-029-035-036-043>045-051>053-260500-
WEST CENTRAL INDIANA

CITY           SKY/WX    TMP DP  RH WIND       PRES   REMARKS
CRAWFORDSVL +  CLEAR     57  49  74 W5        30.15R
GREENCASTLE +  CLEAR     61  46  59 CALM      30.15S
LAFAYETTE      CLEAR     59  50  72 W6        30.13S
TERRE HAUTE    CLEAR     63  47  55 NW3       30.15S

$$

INZ030>032-037>040-046>048-054>057-064-065-260500-
CENTRAL INDIANA

CITY           SKY/WX    TMP DP  RH WIND       PRES   REMARKS
CP ATTERBURY + PTCLDY    55  52  88 CALM      30.15S
FRANKFORT +    PTCLDY    61  52  72 W7        30.16R
GREENWOOD *+   MOCLDY   N/A N/A N/A CALM      30.15S
INDIANAPOLIS   CLEAR     61  49  64 W6        30.14R
-EAGLE CREEK   CLEAR     63  49  60 NW7       30.13S
KOKOMO +       CLEAR     59  51  75 W8        30.13S
MARION +       PTCLDY    57  52  82 W8        30.12F
MT COMFORT *+  CLEAR     59  50  72 W3        30.14S
SHELBYVILLE    CLEAR     63  48  58 NW6       30.13S
ZIONSVILLE +   CLEAR     60  48  66 W3        30.15R

$$

INZ033-034-041-042-049-050-058-059-260500-
EAST CENTRAL INDIANA

CITY           SKY/WX    TMP DP  RH WIND       PRES   REMARKS
MUNCIE         PTCLDY    61  50  67 W5        30.12S
RICHMOND +     CLEAR     55  52  88 CALM      30.14S

$$

INZ060-061-067>069-081>083-085>088-260500-
SOUTHWEST INDIANA

CITY           SKY/WX    TMP DP  RH WIND       PRES   REMARKS
EVANSVILLE     PTCLDY    69  48  47 NW8       30.17R
HUNTINGBURG *+ PTCLDY    66  50  56 NW6       30.17R
WASHINGTON +   PTCLDY    60  50  69 NW5       30.16R

$$

INZ062-063-066-070>080-084-089>092-260500-
SOUTH CENTRAL AND SOUTHEAST INDIANA

CITY           SKY/WX    TMP DP  RH WIND       PRES   REMARKS
BEDFORD +      CLEAR     64  45  48 CALM      30.15R
BLOOMINGTON    CLEAR     59  49  69 CALM      30.15S
MADISON *+     PTCLDY    59  54  82 CALM      30.16S
NORTH VERNON + PTCLDY    59  52  77 CALM      30.15R
SEYMOUR +      CLEAR    N/A N/A N/A CALM      30.14S

$$





USA.gov is the U.S. government's official web portal to all federal, state and local government web resources and services.